| time (UTC) | temp F | wind direction | speed MPH | gust MPH | rain 1hr in | rain 24hr in | rain mn in | humidity % | barometer mb |
| 20260502152003 | 38 | 220 | 6.0 | 11.0 | 0.00 | 0.33 | 0.02 | 83 | 1016.8 |
| 20260502151512 | 38 | 192 | 6.0 | 9.0 | 0.00 | 0.33 | 0.02 | 85 | 1016.8 |
| 20260502151004 | 38 | 234 | 4.0 | 10.0 | 0.00 | 0.34 | 0.02 | 86 | 1016.7 |
| 20260502150504 | 38 | 195 | 3.0 | 11.0 | 0.00 | 0.34 | 0.02 | 86 | 1016.7 |
| 20260502130501 | 41 | 173 | 2.0 | 8.0 | 0.00 | 0.47 | 0.02 | 89 | 1015.4 |
| 20260502123501 | 40 | 155 | 2.0 | 5.0 | 0.00 | 0.47 | 0.02 | 95 | 1015.5 |
| 20260502123004 | 39 | 143 | 1.0 | 4.0 | 0.00 | 0.47 | 0.02 | 95 | 1015.6 |
| 20260502122502 | 39 | 111 | 1.0 | 4.0 | 0.00 | 0.47 | 0.02 | 95 | 1015.7 |
| 20260502122000 | 38 | 94 | 1.0 | 4.0 | 0.00 | 0.47 | 0.02 | 95 | 1015.7 |
| 20260502121504 | 38 | 135 | 1.0 | 4.0 | 0.00 | 0.47 | 0.02 | 95 | 1015.7 |
| 20260502121004 | 38 | 107 | 2.0 | 4.0 | 0.00 | 0.47 | 0.02 | 95 | 1015.7 |
| 20260502120506 | 38 | 155 | 1.0 | 5.0 | 0.00 | 0.47 | 0.02 | 95 | 1015.7 |
| 20260502115503 | 38 | 105 | 3.0 | 10.0 | 0.00 | 0.47 | 0.02 | 95 | 1015.7 |
| 20260502115002 | 38 | 139 | 3.0 | 7.0 | 0.00 | 0.47 | 0.02 | 96 | 1015.7 |
| 20260502114504 | 38 | 136 | 2.0 | 7.0 | 0.00 | 0.47 | 0.02 | 96 | 1015.5 |
| 20260502114002 | 37 | 141 | 1.0 | 7.0 | 0.00 | 0.47 | 0.02 | 96 | 1015.5 |
| 20260502113502 | 37 | 119 | 0.0 | 4.0 | 0.00 | 0.47 | 0.02 | 96 | 1015.4 |
| 20260502113005 | 37 | 119 | 0.0 | 4.0 | 0.00 | 0.47 | 0.02 | 96 | 1015.4 |
| 20260502112503 | 37 | 137 | 1.0 | 4.0 | 0.00 | 0.47 | 0.02 | 96 | 1015.4 |
| 20260502112007 | 37 | 122 | 1.0 | 3.0 | 0.00 | 0.47 | 0.02 | 96 | 1015.4 |
| 20260502111503 | 37 | 107 | 0.0 | 1.0 | 0.00 | 0.47 | 0.02 | 95 | 1015.4 |
| 20260502111004 | 37 | 107 | 0.0 | 1.0 | 0.00 | 0.47 | 0.02 | 95 | 1015.4 |
| 20260502110500 | 37 | 107 | 0.0 | 2.0 | 0.00 | 0.47 | 0.02 | 95 | 1015.4 |
| 20260502110004 | 37 | 107 | 0.0 | 2.0 | 0.00 | 0.47 | 0.02 | 94 | 1015.4 |
| 20260502105504 | 37 | 107 | 0.0 | 2.0 | 0.00 | 0.47 | 0.02 | 95 | 1015.3 |
| 20260502105005 | 37 | 107 | 0.0 | 3.0 | 0.00 | 0.47 | 0.02 | 95 | 1015.3 |
| 20260502104510 | 37 | 136 | 1.0 | 4.0 | 0.00 | 0.47 | 0.02 | 95 | 1015.2 |
| 20260502104008 | 37 | 104 | 2.0 | 4.0 | 0.00 | 0.47 | 0.02 | 95 | 1015.1 |
| 20260502103502 | 38 | 100 | 1.0 | 4.0 | 0.00 | 0.47 | 0.02 | 95 | 1015.1 |
| 20260502103019 | 38 | 84 | 2.0 | 4.0 | 0.00 | 0.47 | 0.02 | 95 | 1015.2 |
| 20260502102500 | 38 | 116 | 2.0 | 4.0 | 0.00 | 0.47 | 0.02 | 95 | 1015.3 |
| 20260502102001 | 38 | 113 | 1.0 | 4.0 | 0.00 | 0.47 | 0.02 | 95 | 1015.3 |
| 20260502101506 | 38 | 104 | 2.0 | 4.0 | 0.00 | 0.47 | 0.02 | 95 | 1015.2 |
| 20260502101001 | 38 | 77 | 1.0 | 3.0 | 0.00 | 0.47 | 0.02 | 95 | 1015.2 |
| 20260502100504 | 38 | 90 | 1.0 | 3.0 | 0.00 | 0.47 | 0.02 | 95 | 1015.2 |
| 20260502091505 | 38 | 58 | 1.0 | 4.0 | 0.01 | 0.47 | 0.02 | 94 | 1015.0 |
| 20260502091004 | 38 | 78 | 1.0 | 3.0 | 0.01 | 0.47 | 0.02 | 94 | 1014.9 |
| 20260502090505 | 38 | 90 | 1.0 | 3.0 | 0.01 | 0.47 | 0.02 | 94 | 1014.8 |
| 20260502071518 | 39 | 38 | 0.0 | 2.0 | 0.01 | 0.46 | 0.01 | 94 | 1015.1 |
| 20260502071005 | 38 | 38 | 0.0 | 2.0 | 0.01 | 0.46 | 0.01 | 94 | 1015.1 |
| 20260502070507 | 38 | 38 | 0.0 | 4.0 | 0.01 | 0.46 | 0.01 | 94 | 1015.1 |
| 20260502070014 | 38 | 51 | 1.0 | 4.0 | 0.01 | 0.46 | 0.01 | 94 | 1015.0 |
| 20260502065505 | 39 | 50 | 2.0 | 5.0 | 0.00 | 0.45 | 0.00 | 94 | 1015.1 |
| 20260502065010 | 38 | 46 | 2.0 | 5.0 | 0.00 | 0.45 | 0.00 | 94 | 1015.2 |
| 20260502064518 | 38 | 86 | 3.0 | 6.0 | 0.00 | 0.45 | 0.00 | 94 | 1015.3 |
| 20260502064007 | 38 | 65 | 3.0 | 7.0 | 0.00 | 0.45 | 0.00 | 94 | 1015.3 |
| 20260502063505 | 38 | 39 | 4.0 | 7.0 | 0.00 | 0.45 | 0.00 | 94 | 1015.4 |
| 20260502063009 | 38 | 59 | 3.0 | 8.0 | 0.00 | 0.45 | 0.00 | 94 | 1015.5 |
| 20260502062506 | 38 | 41 | 4.0 | 8.0 | 0.00 | 0.45 | 0.00 | 94 | 1015.5 |
| 20260502062004 | 38 | 59 | 2.0 | 8.0 | 0.00 | 0.45 | 0.00 | 94 | 1015.5 |
| 20260502061516 | 38 | 26 | 3.0 | 8.0 | 0.00 | 0.45 | 0.00 | 94 | 1015.5 |
| 20260502061003 | 38 | 38 | 2.0 | 4.0 | 0.00 | 0.45 | 0.00 | 95 | 1015.5 |
| 20260502060505 | 38 | 78 | 1.0 | 3.0 | 0.00 | 0.45 | 0.00 | 94 | 1015.6 |
| 20260502060018 | 38 | 338 | 0.0 | 0.0 | 0.00 | 0.45 | 0.00 | 94 | 1015.5 |
| 20260502055505 | 38 | 338 | 0.0 | 0.0 | 0.00 | 0.45 | 0.00 | 94 | 1015.6 |
| 20260502055005 | 38 | 338 | 0.0 | 2.0 | 0.00 | 0.45 | 0.00 | 95 | 1015.5 |
| 20260502054513 | 38 | 338 | 0.0 | 3.0 | 0.00 | 0.45 | 0.00 | 94 | 1015.7 |
| 20260502054005 | 38 | 338 | 1.0 | 3.0 | 0.00 | 0.45 | 0.00 | 94 | 1015.8 |
| 20260502053506 | 38 | 288 | 0.0 | 2.0 | 0.00 | 0.45 | 0.00 | 94 | 1015.7 |
| 20260502053018 | 38 | 288 | 0.0 | 2.0 | 0.00 | 0.45 | 0.00 | 94 | 1015.8 |
| 20260502052506 | 38 | 270 | 0.0 | 1.0 | 0.00 | 0.45 | 0.00 | 94 | 1015.8 |
| 20260502052007 | 38 | 270 | 0.0 | 2.0 | 0.00 | 0.45 | 0.00 | 94 | 1015.8 |
| 20260502051520 | 38 | 270 | 0.0 | 2.0 | 0.00 | 0.45 | 0.00 | 94 | 1015.7 |
| 20260502051007 | 38 | 270 | 0.0 | 1.0 | 0.00 | 0.45 | 0.00 | 94 | 1015.9 |
| 20260502050504 | 38 | 270 | 0.0 | 2.0 | 0.00 | 0.45 | 0.00 | 94 | 1015.8 |
| 20260502050019 | 38 | 270 | 0.0 | 2.0 | 0.00 | 0.45 | 0.00 | 94 | 1015.7 |
| 20260502045507 | 38 | 270 | 1.0 | 2.0 | 0.00 | 0.45 | 0.00 | 94 | 1015.7 |
| 20260502045006 | 38 | 270 | 0.0 | 2.0 | 0.00 | 0.45 | 0.00 | 94 | 1015.8 |
| 20260502044519 | 38 | 270 | 1.0 | 2.0 | 0.00 | 0.45 | 0.00 | 95 | 1015.7 |
| 20260502044008 | 38 | 270 | 1.0 | 3.0 | 0.00 | 0.45 | 0.00 | 94 | 1015.7 |
| 20260502043511 | 38 | 273 | 1.0 | 3.0 | 0.00 | 0.45 | 0.00 | 94 | 1015.8 |
| 20260502043024 | 38 | 5 | 1.0 | 2.0 | 0.00 | 0.45 | 0.00 | 94 | 1015.8 |
| 20260502042506 | 38 | 13 | 0.0 | 2.0 | 0.00 | 0.45 | 0.00 | 94 | 1015.9 |
| 20260502042006 | 38 | 13 | 0.0 | 2.0 | 0.00 | 0.45 | 0.00 | 94 | 1015.9 |
| 20260502041520 | 38 | 13 | 0.0 | 3.0 | 0.00 | 0.45 | 0.00 | 94 | 1015.9 |
| 20260502041010 | 38 | 13 | 1.0 | 3.0 | 0.00 | 0.45 | 0.00 | 94 | 1016.0 |
| 20260502040509 | 38 | 10 | 1.0 | 3.0 | 0.00 | 0.45 | 0.00 | 94 | 1016.1 |
| 20260502040026 | 38 | 11 | 1.0 | 3.0 | 0.00 | 0.45 | 0.00 | 94 | 1016.1 |
| 20260502035505 | 38 | 350 | 0.0 | 3.0 | 0.00 | 0.45 | 0.45 | 94 | 1015.9 |
| 20260502035007 | 38 | 165 | 1.0 | 2.0 | 0.00 | 0.45 | 0.45 | 94 | 1016.0 |
| 20260502034523 | 37 | 165 | 0.0 | 1.0 | 0.00 | 0.45 | 0.45 | 94 | 1016.1 |
| 20260502034010 | 37 | 165 | 0.0 | 0.0 | 0.00 | 0.45 | 0.45 | 94 | 1016.2 |
| 20260502033506 | 37 | 165 | 0.0 | 0.0 | 0.00 | 0.45 | 0.45 | 94 | 1016.1 |
| 20260502033035 | 37 | 165 | 0.0 | 1.0 | 0.00 | 0.45 | 0.45 | 94 | 1016.1 |
| 20260502032504 | 37 | 165 | 0.0 | 1.0 | 0.00 | 0.45 | 0.45 | 94 | 1016.1 |
| 20260502032008 | 37 | 165 | 0.0 | 1.0 | 0.00 | 0.45 | 0.45 | 94 | 1016.0 |
| 20260502031525 | 37 | 165 | 0.0 | 1.0 | 0.00 | 0.45 | 0.45 | 94 | 1016.0 |
| 20260502031009 | 37 | 165 | 0.0 | 0.0 | 0.00 | 0.45 | 0.45 | 94 | 1016.0 |
| 20260502030509 | 37 | 165 | 0.0 | 1.0 | 0.00 | 0.45 | 0.45 | 94 | 1016.0 |
| 20260502030006 | 37 | 165 | 0.0 | 2.0 | 0.00 | 0.45 | 0.45 | 94 | 1015.9 |
| 20260502025505 | 37 | 165 | 0.0 | 2.0 | 0.00 | 0.45 | 0.45 | 94 | 1015.9 |
| 20260502025005 | 37 | 165 | 0.0 | 1.0 | 0.00 | 0.45 | 0.45 | 94 | 1015.9 |
| 20260502024508 | 37 | 165 | 0.0 | 0.0 | 0.00 | 0.45 | 0.45 | 94 | 1015.9 |
| 20260502024005 | 37 | 165 | 0.0 | 0.0 | 0.00 | 0.45 | 0.45 | 93 | 1015.8 |
| 20260502023501 | 37 | 165 | 0.0 | 1.0 | 0.00 | 0.45 | 0.45 | 93 | 1015.9 |
| 20260502023008 | 37 | 165 | 0.0 | 1.0 | 0.00 | 0.45 | 0.45 | 93 | 1015.9 |
| 20260502022502 | 37 | 165 | 0.0 | 0.0 | 0.00 | 0.45 | 0.45 | 93 | 1015.9 |
| 20260502022004 | 37 | 165 | 0.0 | 0.0 | 0.00 | 0.45 | 0.45 | 94 | 1015.8 |
| 20260502021510 | 36 | 165 | 0.0 | 0.0 | 0.00 | 0.45 | 0.45 | 93 | 1015.8 |
| 20260502021004 | 36 | 165 | 0.0 | 0.0 | 0.00 | 0.45 | 0.45 | 93 | 1015.7 |
| 20260502020502 | 36 | 165 | 0.0 | 0.0 | 0.00 | 0.45 | 0.45 | 93 | 1015.8 |
| 20260502020016 | 36 | 165 | 0.0 | 0.0 | 0.00 | 0.45 | 0.45 | 92 | 1015.8 |
| 20260502015510 | 36 | 165 | 0.0 | 0.0 | 0.00 | 0.45 | 0.45 | 92 | 1015.7 |
| 20260502015012 | 36 | 165 | 0.0 | 0.0 | 0.00 | 0.45 | 0.45 | 92 | 1015.7 |
| 20260502014510 | 36 | 165 | 0.0 | 0.0 | 0.00 | 0.45 | 0.45 | 92 | 1015.6 |
| 20260502014006 | 36 | 165 | 0.0 | 0.0 | 0.00 | 0.45 | 0.45 | 92 | 1015.5 |
| 20260502013506 | 36 | 165 | 0.0 | 0.0 | 0.00 | 0.45 | 0.45 | 91 | 1015.5 |
| 20260502013005 | 36 | 165 | 0.0 | 0.0 | 0.00 | 0.45 | 0.45 | 90 | 1015.5 |
| 20260502012504 | 36 | 165 | 0.0 | 0.0 | 0.00 | 0.45 | 0.45 | 90 | 1015.5 |
| 20260502012006 | 37 | 165 | 0.0 | 0.0 | 0.00 | 0.45 | 0.45 | 90 | 1015.4 |
| 20260502011510 | 37 | 165 | 0.0 | 0.0 | 0.00 | 0.45 | 0.45 | 90 | 1015.4 |
| 20260502011005 | 37 | 165 | 0.0 | 0.0 | 0.00 | 0.45 | 0.45 | 89 | 1015.4 |
| 20260502010504 | 37 | 165 | 0.0 | 0.0 | 0.00 | 0.45 | 0.45 | 89 | 1015.3 |
| 20260502010019 | 37 | 165 | 0.0 | 0.0 | 0.00 | 0.45 | 0.45 | 89 | 1015.3 |
| 20260502005505 | 38 | 165 | 0.0 | 0.0 | 0.00 | 0.45 | 0.45 | 88 | 1015.3 |
| 20260502005006 | 38 | 165 | 0.0 | 0.0 | 0.00 | 0.45 | 0.45 | 88 | 1015.3 |
| 20260502004518 | 38 | 165 | 0.0 | 0.0 | 0.00 | 0.45 | 0.45 | 88 | 1015.1 |
| 20260502004010 | 38 | 165 | 0.0 | 0.0 | 0.00 | 0.45 | 0.45 | 87 | 1015.0 |
| 20260502003502 | 39 | 165 | 0.0 | 1.0 | 0.00 | 0.45 | 0.45 | 87 | 1014.9 |
| 20260502003014 | 39 | 165 | 0.0 | 1.0 | 0.00 | 0.45 | 0.45 | 87 | 1014.7 |
| 20260502002506 | 39 | 165 | 0.0 | 0.0 | 0.00 | 0.45 | 0.45 | 87 | 1014.6 |
| 20260502002010 | 40 | 165 | 0.0 | 0.0 | 0.00 | 0.45 | 0.45 | 86 | 1014.5 |
| 20260502001513 | 40 | 165 | 0.0 | 1.0 | 0.00 | 0.45 | 0.45 | 86 | 1014.4 |
| 20260502001007 | 40 | 165 | 0.0 | 2.0 | 0.00 | 0.45 | 0.45 | 86 | 1014.4 |
| 20260502000504 | 40 | 165 | 0.0 | 2.0 | 0.00 | 0.45 | 0.45 | 85 | 1014.3 |
| 20260502000010 | 41 | 165 | 0.0 | 2.0 | 0.00 | 0.45 | 0.45 | 85 | 1014.3 |
| 20260501235508 | 41 | 165 | 0.0 | 2.0 | 0.00 | 0.45 | 0.45 | 85 | 1014.3 |
| 20260501235008 | 41 | 165 | 0.0 | 2.0 | 0.00 | 0.45 | 0.45 | 85 | 1014.1 |
| 20260501234513 | 41 | 161 | 0.0 | 0.0 | 0.00 | 0.45 | 0.45 | 84 | 1014.1 |
| 20260501234005 | 41 | 155 | 0.0 | 4.0 | 0.00 | 0.45 | 0.45 | 84 | 1014.2 |
| 20260501233507 | 42 | 160 | 0.0 | 6.0 | 0.00 | 0.45 | 0.45 | 84 | 1014.2 |
| 20260501233019 | 42 | 175 | 2.0 | 6.0 | 0.00 | 0.45 | 0.45 | 83 | 1014.2 |
| 20260501232512 | 42 | 173 | 1.0 | 6.0 | 0.00 | 0.45 | 0.45 | 82 | 1014.2 |
| 20260501232005 | 43 | 185 | 2.0 | 6.0 | 0.00 | 0.45 | 0.45 | 81 | 1014.2 |
| 20260501231518 | 43 | 198 | 2.0 | 9.0 | 0.00 | 0.45 | 0.45 | 83 | 1014.3 |
| 20260501231008 | 43 | 234 | 4.0 | 9.0 | 0.00 | 0.45 | 0.45 | 81 | 1014.2 |
| 20260501230510 | 43 | 175 | 1.0 | 5.0 | 0.00 | 0.45 | 0.45 | 84 | 1014.3 |
| 20260501230017 | 42 | 184 | 0.0 | 8.0 | 0.01 | 0.45 | 0.45 | 85 | 1014.2 |
| 20260501225508 | 42 | 187 | 1.0 | 9.0 | 0.01 | 0.45 | 0.45 | 84 | 1014.2 |
| 20260501225011 | 42 | 209 | 4.0 | 9.0 | 0.01 | 0.45 | 0.45 | 85 | 1014.2 |
| 20260501224510 | 42 | 189 | 2.0 | 11.0 | 0.01 | 0.45 | 0.45 | 85 | 1014.2 |
| 20260501224005 | 42 | 89 | 3.0 | 11.0 | 0.01 | 0.45 | 0.45 | 85 | 1014.1 |
| 20260501223506 | 42 | 177 | 3.0 | 9.0 | 0.01 | 0.45 | 0.45 | 87 | 1014.0 |
| 20260501223033 | 42 | 157 | 3.0 | 8.0 | 0.01 | 0.45 | 0.45 | 87 | 1014.0 |
| 20260501222506 | 42 | 186 | 2.0 | 11.0 | 0.01 | 0.45 | 0.45 | 86 | 1013.8 |
| 20260501222010 | 42 | 188 | 4.0 | 11.0 | 0.01 | 0.45 | 0.45 | 86 | 1013.8 |
| 20260501221529 | 42 | 187 | 5.0 | 11.0 | 0.01 | 0.45 | 0.45 | 87 | 1013.7 |
| 20260501221007 | 42 | 200 | 5.0 | 14.0 | 0.01 | 0.45 | 0.45 | 86 | 1013.7 |
| 20260501220506 | 43 | 219 | 7.0 | 14.0 | 0.01 | 0.45 | 0.45 | 88 | 1013.7 |
| 20260501220030 | 43 | 213 | 7.0 | 13.0 | 0.00 | 0.44 | 0.44 | 91 | 1013.4 |
| 20260501215509 | 42 | 187 | 4.0 | 11.0 | 0.00 | 0.44 | 0.44 | 92 | 1013.3 |
| 20260501215003 | 42 | 171 | 4.0 | 12.0 | 0.00 | 0.44 | 0.44 | 93 | 1013.2 |
| 20260501214530 | 41 | 199 | 3.0 | 12.0 | 0.00 | 0.44 | 0.44 | 92 | 1013.1 |
| 20260501214009 | 41 | 173 | 4.0 | 11.0 | 0.00 | 0.44 | 0.44 | 92 | 1013.1 |
| 20260501213512 | 41 | 194 | 2.0 | 16.0 | 0.00 | 0.44 | 0.44 | 92 | 1013.1 |
| 20260501213015 | 41 | 169 | 5.0 | 16.0 | 0.00 | 0.44 | 0.44 | 92 | 1013.0 |
| 20260501212506 | 41 | 182 | 6.0 | 12.0 | 0.00 | 0.44 | 0.44 | 92 | 1012.9 |
| 20260501212006 | 41 | 180 | 3.0 | 12.0 | 0.00 | 0.44 | 0.44 | 92 | 1012.8 |
| 20260501211520 | 42 | 200 | 5.0 | 12.0 | 0.00 | 0.44 | 0.44 | 92 | 1012.7 |
| 20260501211008 | 42 | 144 | 4.0 | 15.0 | 0.00 | 0.44 | 0.44 | 93 | 1012.7 |
| 20260501210506 | 42 | 178 | 4.0 | 15.0 | 0.00 | 0.44 | 0.44 | 93 | 1012.7 |
| 20260501210004 | 42 | 205 | 4.0 | 9.0 | 0.00 | 0.44 | 0.44 | 94 | 1012.5 |
| 20260501205502 | 42 | 164 | 3.0 | 7.0 | 0.00 | 0.44 | 0.44 | 94 | 1012.4 |
| 20260501205002 | 42 | 186 | 4.0 | 7.0 | 0.00 | 0.44 | 0.44 | 94 | 1012.3 |
| 20260501204507 | 42 | 169 | 3.0 | 9.0 | 0.00 | 0.44 | 0.44 | 95 | 1012.3 |
| 20260501204003 | 42 | 152 | 3.0 | 9.0 | 0.00 | 0.44 | 0.44 | 94 | 1012.2 |
| 20260501203502 | 42 | 142 | 4.0 | 11.0 | 0.02 | 0.44 | 0.44 | 94 | 1012.1 |
| 20260501203009 | 42 | 189 | 4.0 | 11.0 | 0.04 | 0.44 | 0.44 | 94 | 1012.1 |
| 20260501202504 | 42 | 194 | 3.0 | 9.0 | 0.05 | 0.44 | 0.44 | 94 | 1012.2 |
| 20260501202004 | 42 | 188 | 2.0 | 8.0 | 0.05 | 0.44 | 0.44 | 94 | 1012.1 |
| 20260501201502 | 42 | 177 | 4.0 | 11.0 | 0.05 | 0.44 | 0.44 | 94 | 1012.0 |
| 20260501201002 | 42 | 168 | 4.0 | 11.0 | 0.05 | 0.44 | 0.44 | 94 | 1012.0 |
| 20260501200501 | 42 | 188 | 3.0 | 11.0 | 0.05 | 0.44 | 0.44 | 94 | 1012.0 |
| 20260501200005 | 42 | 223 | 4.0 | 9.0 | 0.05 | 0.44 | 0.44 | 94 | 1011.9 |
| 20260501195502 | 43 | 196 | 5.0 | 10.0 | 0.05 | 0.44 | 0.44 | 95 | 1011.9 |
| 20260501195002 | 42 | 184 | 2.0 | 10.0 | 0.05 | 0.44 | 0.44 | 95 | 1011.9 |
| 20260501194504 | 42 | 194 | 3.0 | 8.0 | 0.06 | 0.44 | 0.44 | 95 | 1011.9 |
| 20260501194002 | 42 | 164 | 3.0 | 10.0 | 0.06 | 0.44 | 0.44 | 94 | 1011.9 |
| 20260501193503 | 42 | 157 | 3.0 | 10.0 | 0.05 | 0.42 | 0.42 | 93 | 1011.9 |
| 20260501193008 | 42 | 169 | 2.0 | 6.0 | 0.03 | 0.40 | 0.40 | 93 | 1011.8 |
| 20260501192502 | 43 | 148 | 3.0 | 6.0 | 0.02 | 0.39 | 0.39 | 93 | 1011.8 |
| 20260501192003 | 43 | 188 | 1.0 | 5.0 | 0.02 | 0.39 | 0.39 | 94 | 1011.8 |
| 20260501191510 | 44 | 163 | 1.0 | 5.0 | 0.02 | 0.39 | 0.39 | 94 | 1011.8 |
| 20260501191004 | 44 | 127 | 1.0 | 3.0 | 0.02 | 0.39 | 0.39 | 95 | 1011.8 |
| 20260501190501 | 44 | 163 | 0.0 | 4.0 | 0.03 | 0.39 | 0.39 | 94 | 1011.8 |
| 20260501190001 | 44 | 144 | 1.0 | 8.0 | 0.03 | 0.39 | 0.39 | 94 | 1011.6 |
| 20260501185501 | 44 | 145 | 2.0 | 8.0 | 0.03 | 0.39 | 0.39 | 94 | 1011.6 |
| 20260501185002 | 44 | 132 | 1.0 | 6.0 | 0.03 | 0.39 | 0.39 | 95 | 1011.7 |
| 20260501184504 | 44 | 136 | 2.0 | 6.0 | 0.02 | 0.38 | 0.38 | 95 | 1011.8 |
| 20260501184002 | 44 | 107 | 1.0 | 4.0 | 0.03 | 0.38 | 0.38 | 95 | 1011.8 |
| 20260501183502 | 44 | 99 | 2.0 | 7.0 | 0.02 | 0.37 | 0.37 | 95 | 1011.8 |
| 20260501183003 | 44 | 108 | 3.0 | 7.0 | 0.03 | 0.37 | 0.37 | 95 | 1011.7 |
| 20260501182503 | 44 | 62 | 2.0 | 7.0 | 0.04 | 0.37 | 0.37 | 95 | 1011.7 |
| 20260501182005 | 44 | 102 | 3.0 | 7.0 | 0.04 | 0.37 | 0.37 | 95 | 1011.5 |
| 20260501181508 | 43 | 116 | 3.0 | 8.0 | 0.05 | 0.37 | 0.37 | 95 | 1011.6 |
| 20260501181003 | 43 | 96 | 3.0 | 8.0 | 0.06 | 0.37 | 0.37 | 95 | 1011.6 |
| 20260501180504 | 43 | 124 | 2.0 | 6.0 | 0.06 | 0.36 | 0.36 | 95 | 1011.7 |
| 20260501180012 | 43 | 94 | 2.0 | 7.0 | 0.07 | 0.37 | 0.36 | 95 | 1011.8 |
| 20260501175505 | 43 | 63 | 2.0 | 7.0 | 0.08 | 0.37 | 0.36 | 95 | 1011.7 |
| 20260501175002 | 43 | 108 | 3.0 | 7.0 | 0.08 | 0.37 | 0.36 | 95 | 1011.7 |
| 20260501174510 | 43 | 128 | 3.0 | 7.0 | 0.09 | 0.37 | 0.36 | 94 | 1011.7 |
| 20260501174002 | 43 | 138 | 3.0 | 8.0 | 0.08 | 0.36 | 0.35 | 94 | 1011.6 |
| 20260501173502 | 43 | 101 | 5.0 | 8.0 | 0.09 | 0.36 | 0.35 | 94 | 1011.7 |
| 20260501173004 | 43 | 119 | 3.0 | 10.0 | 0.08 | 0.35 | 0.34 | 94 | 1011.7 |
| 20260501172503 | 43 | 102 | 4.0 | 10.0 | 0.08 | 0.34 | 0.33 | 94 | 1011.8 |
| 20260501172006 | 43 | 92 | 2.0 | 7.0 | 0.09 | 0.34 | 0.33 | 94 | 1011.8 |
| 20260501171504 | 43 | 107 | 3.0 | 7.0 | 0.08 | 0.33 | 0.32 | 94 | 1011.7 |
| 20260501171002 | 43 | 103 | 3.0 | 7.0 | 0.08 | 0.32 | 0.31 | 94 | 1011.8 |
| 20260501170503 | 43 | 36 | 3.0 | 8.0 | 0.07 | 0.31 | 0.30 | 94 | 1011.8 |
| 20260501170013 | 43 | 74 | 4.0 | 10.0 | 0.07 | 0.30 | 0.29 | 94 | 1011.8 |
| 20260501165505 | 43 | 36 | 5.0 | 10.0 | 0.07 | 0.29 | 0.28 | 94 | 1011.9 |
| 20260501165006 | 43 | 34 | 3.0 | 7.0 | 0.07 | 0.29 | 0.28 | 94 | 1011.8 |
| 20260501164518 | 43 | 50 | 3.0 | 5.0 | 0.07 | 0.28 | 0.27 | 95 | 1011.8 |
| 20260501164001 | 44 | 35 | 2.0 | 4.0 | 0.07 | 0.28 | 0.27 | 95 | 1011.7 |
| 20260501163501 | 43 | 28 | 2.0 | 6.0 | 0.08 | 0.27 | 0.26 | 94 | 1011.8 |
| 20260501163014 | 43 | 85 | 2.0 | 7.0 | 0.10 | 0.27 | 0.26 | 94 | 1011.8 |
| 20260501162507 | 43 | 101 | 3.0 | 7.0 | 0.10 | 0.26 | 0.25 | 94 | 1011.8 |
| 20260501162001 | 43 | 50 | 3.0 | 7.0 | 0.10 | 0.25 | 0.24 | 94 | 1011.9 |
| 20260501161503 | 43 | 95 | 3.0 | 7.0 | 0.10 | 0.25 | 0.24 | 94 | 1011.9 |
| 20260501161005 | 43 | 52 | 3.0 | 6.0 | 0.10 | 0.24 | 0.23 | 94 | 1011.9 |
| 20260501160504 | 43 | 105 | 3.0 | 6.0 | 0.10 | 0.24 | 0.23 | 94 | 1011.9 |
| 20260501160011 | 43 | 70 | 1.0 | 5.0 | 0.10 | 0.23 | 0.22 | 94 | 1011.9 |
| 20260501155506 | 43 | 115 | 1.0 | 5.0 | 0.10 | 0.22 | 0.21 | 94 | 1011.9 |
| 20260501155004 | 43 | 74 | 2.0 | 5.0 | 0.11 | 0.22 | 0.21 | 93 | 1011.9 |
| 20260501154505 | 43 | 80 | 3.0 | 5.0 | 0.11 | 0.21 | 0.20 | 93 | 1012.0 |
| 20260501154006 | 43 | 92 | 1.0 | 6.0 | 0.12 | 0.21 | 0.20 | 93 | 1012.0 |
| 20260501153507 | 43 | 44 | 3.0 | 8.0 | 0.10 | 0.19 | 0.18 | 93 | 1012.1 |
| 20260501153022 | 43 | 64 | 4.0 | 10.0 | 0.09 | 0.17 | 0.16 | 93 | 1012.2 |